TimeMDT,TemperatureF,Dew PointF,Humidity,Sea Level PressureIn,VisibilityMPH,Wind Direction,Wind SpeedMPH,Gust SpeedMPH,PrecipitationIn,Events,Conditions,WindDirDegrees,DateUTC
12:55 AM,46.6,34.5,63,29.98,10.0,WNW,9.2,-,N/A,,Clear,300,2012-10-14 06:55:00
1:55 AM,45.7,35.2,67,30.00,10.0,WNW,10.4,-,N/A,,Clear,300,2012-10-14 07:55:00
2:55 AM,45.3,36.0,70,30.00,10.0,WNW,8.1,-,N/A,,Clear,300,2012-10-14 08:55:00
3:55 AM,46.6,36.0,67,30.01,10.0,WNW,8.1,-,N/A,,Partly Cloudy,290,2012-10-14 09:55:00
4:55 AM,45.9,36.1,69,30.03,10.0,NW,13.8,-,N/A,,Clear,320,2012-10-14 10:55:00
5:55 AM,50.4,36.7,59,30.02,10.0,NW,16.1,-,N/A,,Clear,310,2012-10-14 11:55:00
6:55 AM,51.3,36.5,57,30.05,10.0,WNW,13.8,-,N/A,,Clear,300,2012-10-14 12:55:00
7:55 AM,55.6,37.0,50,30.06,10.0,NW,13.8,-,N/A,,Clear,310,2012-10-14 13:55:00
8:55 AM,59.7,36.9,43,30.06,10.0,NW,19.6,28.8,N/A,,Clear,320,2012-10-14 14:55:00
9:55 AM,61.7,36.0,38,30.06,10.0,NW,19.6,25.3,N/A,,Clear,320,2012-10-14 15:55:00
10:55 AM,63.3,35.6,36,30.06,10.0,NNW,18.4,25.3,N/A,,Clear,340,2012-10-14 16:55:00
11:55 AM,65.7,34.5,31,30.05,10.0,NNW,17.3,28.8,N/A,,Clear,340,2012-10-14 17:55:00
12:55 PM,67.3,34.9,30,30.04,10.0,NNW,18.4,28.8,N/A,,Clear,340,2012-10-14 18:55:00
1:55 PM,68.0,34.2,29,30.01,10.0,NNW,20.7,29.9,N/A,,Clear,330,2012-10-14 19:55:00
2:55 PM,69.4,33.4,26,30.00,10.0,NNW,21.9,31.1,N/A,,Clear,330,2012-10-14 20:55:00
3:55 PM,69.8,31.1,24,29.99,10.0,NNW,20.7,26.5,N/A,,Clear,340,2012-10-14 21:55:00
4:55 PM,68.5,32.0,26,29.99,10.0,NNW,15.0,-,N/A,,Clear,330,2012-10-14 22:55:00
5:55 PM,65.1,32.5,30,30.00,10.0,North,10.4,-,N/A,,Clear,350,2012-10-14 23:55:00
6:55 PM,62.2,32.4,33,29.99,10.0,North,6.9,-,N/A,,Clear,350,2012-10-15 00:55:00
7:55 PM,59.9,32.5,36,30.01,10.0,NNW,9.2,-,N/A,,Clear,330,2012-10-15 01:55:00
8:55 PM,54.1,30.7,41,30.01,10.0,WSW,3.5,-,N/A,,Clear,240,2012-10-15 02:55:00
9:55 PM,49.8,28.9,45,30.01,10.0,Calm,Calm,-,N/A,,Scattered Clouds,0,2012-10-15 03:55:00
10:55 PM,50.9,29.5,44,29.99,10.0,Calm,Calm,-,N/A,,Scattered Clouds,0,2012-10-15 04:55:00
11:55 PM,46.8,29.3,51,29.97,10.0,Calm,Calm,-,N/A,,Clear,0,2012-10-15 05:55:00